| time (UTC) | temp F | wind direction | speed MPH | gust MPH | rain 1hr in | rain 24hr in | rain mn in | humidity % | barometer mb |
| 20260507163909 | 52 | 172 | 0.0 | 1.0 | 0.00 | 0.00 | 0.00 | 66 | 1013.5 |
| 20260507163406 | 52 | 98 | 0.0 | 1.0 | 0.00 | 0.00 | 0.00 | 64 | 1013.5 |
| 20260507162902 | 53 | 160 | 2.0 | 2.0 | 0.00 | 0.00 | 0.00 | 60 | 1013.5 |
| 20260507162357 | 53 | 223 | 2.0 | 2.0 | 0.00 | 0.00 | 0.00 | 61 | 1013.5 |
| 20260507161855 | 54 | 183 | 3.0 | 3.0 | 0.00 | 0.00 | 0.00 | 62 | 1013.9 |
| 20260507161351 | 54 | 201 | 3.0 | 3.0 | 0.00 | 0.00 | 0.00 | 63 | 1013.9 |
| 20260507160848 | 52 | 155 | 0.0 | 1.0 | 0.00 | 0.00 | 0.00 | 62 | 1013.9 |
| 20260507160343 | 52 | 132 | 1.0 | 1.0 | 0.00 | 0.00 | 0.00 | 62 | 1013.9 |
| 20260507155840 | 53 | 332 | 2.0 | 2.0 | 0.00 | 0.00 | 0.00 | 61 | 1013.9 |
| 20260507155336 | 52 | 120 | 2.0 | 2.0 | 0.00 | 0.00 | 0.00 | 62 | 1013.9 |
| 20260507154833 | 52 | 204 | 1.0 | 2.0 | 0.00 | 0.00 | 0.00 | 60 | 1013.9 |
| 20260507154330 | 51 | 160 | 1.0 | 2.0 | 0.00 | 0.00 | 0.00 | 63 | 1014.2 |
| 20260507153827 | 52 | 140 | 1.0 | 1.0 | 0.00 | 0.00 | 0.00 | 58 | 1014.2 |
| 20260507153324 | 51 | 248 | 2.0 | 3.0 | 0.00 | 0.00 | 0.00 | 60 | 1014.2 |
| 20260507152820 | 51 | 182 | 0.0 | 1.0 | 0.00 | 0.00 | 0.00 | 61 | 1014.2 |
| 20260507152317 | 51 | 275 | 2.0 | 2.0 | 0.00 | 0.00 | 0.00 | 61 | 1014.2 |
| 20260507151813 | 51 | 257 | 2.0 | 3.0 | 0.00 | 0.00 | 0.00 | 61 | 1014.2 |
| 20260507151309 | 51 | 330 | 2.0 | 3.0 | 0.00 | 0.00 | 0.00 | 60 | 1014.5 |
| 20260507150806 | 51 | 332 | 5.0 | 6.0 | 0.00 | 0.00 | 0.00 | 63 | 1014.5 |
| 20260507150303 | 51 | 191 | 1.0 | 1.0 | 0.00 | 0.00 | 0.00 | 63 | 1014.5 |
| 20260507145759 | 49 | 129 | 1.0 | 1.0 | 0.00 | 0.00 | 0.00 | 62 | 1014.5 |
| 20260507145255 | 48 | 162 | 0.0 | 1.0 | 0.00 | 0.00 | 0.00 | 67 | 1014.5 |
| 20260507144752 | 47 | 134 | 1.0 | 1.0 | 0.00 | 0.00 | 0.00 | 64 | 1014.5 |
| 20260507144250 | 46 | 219 | 2.0 | 2.0 | 0.00 | 0.00 | 0.00 | 65 | 1014.5 |
| 20260507143746 | 47 | 284 | 3.0 | 5.0 | 0.00 | 0.00 | 0.00 | 63 | 1014.9 |
| 20260507143244 | 47 | 154 | 1.0 | 2.0 | 0.00 | 0.00 | 0.00 | 66 | 1014.9 |
| 20260507142740 | 47 | 289 | 2.0 | 2.0 | 0.00 | 0.00 | 0.00 | 65 | 1014.9 |
| 20260507142236 | 47 | 186 | 1.0 | 1.0 | 0.00 | 0.00 | 0.00 | 66 | 1014.5 |
| 20260507141732 | 47 | 187 | 1.0 | 1.0 | 0.00 | 0.00 | 0.00 | 66 | 1014.9 |
| 20260507141230 | 47 | 238 | 5.0 | 7.0 | 0.00 | 0.00 | 0.00 | 66 | 1014.5 |
| 20260507140726 | 47 | 297 | 2.0 | 5.0 | 0.00 | 0.00 | 0.00 | 67 | 1014.5 |
| 20260507140224 | 47 | 316 | 4.0 | 6.0 | 0.00 | 0.00 | 0.00 | 64 | 1014.5 |
| 20260507135720 | 46 | 133 | 1.0 | 1.0 | 0.00 | 0.00 | 0.00 | 67 | 1014.5 |
| 20260507135218 | 46 | 268 | 4.0 | 5.0 | 0.00 | 0.00 | 0.00 | 66 | 1014.9 |
| 20260507134714 | 46 | 186 | 0.0 | 1.0 | 0.00 | 0.00 | 0.00 | 67 | 1014.9 |
| 20260507134210 | 47 | 178 | 2.0 | 3.0 | 0.00 | 0.00 | 0.00 | 66 | 1014.5 |
| 20260507133706 | 47 | 194 | 3.0 | 5.0 | 0.00 | 0.00 | 0.00 | 66 | 1014.5 |
| 20260507133203 | 47 | 142 | 0.0 | 1.0 | 0.00 | 0.00 | 0.00 | 69 | 1014.5 |
| 20260507132701 | 47 | 166 | 2.0 | 3.0 | 0.00 | 0.00 | 0.00 | 68 | 1014.5 |
| 20260507132157 | 47 | 198 | 2.0 | 3.0 | 0.00 | 0.00 | 0.00 | 68 | 1014.5 |
| 20260507131654 | 47 | 183 | 1.0 | 2.0 | 0.00 | 0.00 | 0.00 | 70 | 1014.2 |
| 20260507131151 | 47 | 55 | 1.0 | 2.0 | 0.00 | 0.00 | 0.00 | 71 | 1014.9 |
| 20260507130648 | 48 | 148 | 1.0 | 1.0 | 0.00 | 0.00 | 0.00 | 69 | 1014.5 |
| 20260507130146 | 47 | 243 | 3.0 | 5.0 | 0.00 | 0.00 | 0.00 | 69 | 1014.5 |
| 20260507125644 | 47 | 221 | 1.0 | 1.0 | 0.00 | 0.00 | 0.00 | 69 | 1014.5 |
| 20260507125142 | 48 | 141 | 2.0 | 2.0 | 0.00 | 0.00 | 0.00 | 71 | 1014.5 |
| 20260507124637 | 47 | 218 | 3.0 | 5.0 | 0.00 | 0.00 | 0.00 | 70 | 1014.2 |
| 20260507124135 | 47 | 201 | 1.0 | 2.0 | 0.00 | 0.00 | 0.00 | 73 | 1014.5 |
| 20260507123633 | 46 | 288 | 3.0 | 3.0 | 0.00 | 0.00 | 0.00 | 75 | 1014.5 |
| 20260507123130 | 46 | 181 | 1.0 | 2.0 | 0.00 | 0.00 | 0.00 | 75 | 1014.5 |
| 20260507122626 | 46 | 247 | 0.0 | 1.0 | 0.00 | 0.00 | 0.00 | 77 | 1014.5 |
| 20260507122121 | 45 | 174 | 0.0 | 0.0 | 0.00 | 0.00 | 0.00 | 79 | 1014.5 |
| 20260507121618 | 45 | 203 | 2.0 | 2.0 | 0.00 | 0.00 | 0.00 | 79 | 1014.9 |
| 20260507121114 | 45 | 200 | 1.0 | 1.0 | 0.00 | 0.00 | 0.00 | 81 | 1014.2 |
| 20260507120610 | 44 | 152 | 1.0 | 2.0 | 0.00 | 0.00 | 0.00 | 83 | 1014.5 |
| 20260507120107 | 43 | 245 | 1.0 | 2.0 | 0.00 | 0.00 | 0.00 | 83 | 1014.5 |
| 20260507115603 | 43 | 154 | 1.0 | 2.0 | 0.00 | 0.00 | 0.00 | 84 | 1014.2 |
| 20260507115059 | 43 | 167 | 1.0 | 1.0 | 0.00 | 0.00 | 0.00 | 84 | 1014.2 |
| 20260507114555 | 44 | 200 | 1.0 | 2.0 | 0.00 | 0.00 | 0.00 | 83 | 1014.2 |
| 20260507114052 | 43 | 314 | 2.0 | 2.0 | 0.00 | 0.00 | 0.00 | 85 | 1014.2 |
| 20260507113549 | 43 | 222 | 3.0 | 5.0 | 0.00 | 0.00 | 0.00 | 85 | 1014.5 |
| 20260507113046 | 43 | 157 | 0.0 | 0.0 | 0.00 | 0.00 | 0.00 | 87 | 1013.9 |
| 20260507112544 | 43 | 138 | 0.0 | 0.0 | 0.00 | 0.00 | 0.00 | 86 | 1014.2 |
| 20260507112041 | 43 | 153 | 0.0 | 0.0 | 0.00 | 0.00 | 0.00 | 88 | 1014.2 |
| 20260507111538 | 42 | 154 | 0.0 | 0.0 | 0.00 | 0.00 | 0.00 | 90 | 1014.5 |
| 20260507111035 | 40 | 151 | 0.0 | 0.0 | 0.00 | 0.00 | 0.00 | 92 | 1014.2 |
| 20260507110531 | 40 | 150 | 0.0 | 0.0 | 0.00 | 0.00 | 0.00 | 92 | 1014.2 |
| 20260507110027 | 39 | 157 | 0.0 | 0.0 | 0.00 | 0.00 | 0.00 | 94 | 1014.2 |
| 20260507105525 | 38 | 152 | 0.0 | 0.0 | 0.00 | 0.00 | 0.00 | 95 | 1013.9 |
| 20260507105020 | 37 | 154 | 0.0 | 0.0 | 0.00 | 0.00 | 0.00 | 95 | 1014.2 |
| 20260507104518 | 36 | 158 | 0.0 | 0.0 | 0.00 | 0.00 | 0.00 | 96 | 1013.9 |
| 20260507104015 | 36 | 152 | 0.0 | 0.0 | 0.00 | 0.00 | 0.00 | 96 | 1013.5 |
| 20260507103511 | 35 | 150 | 0.0 | 0.0 | 0.00 | 0.00 | 0.00 | 96 | 1013.9 |
| 20260507103007 | 35 | 154 | 0.0 | 0.0 | 0.00 | 0.00 | 0.00 | 96 | 1014.2 |
| 20260507102504 | 34 | 155 | 0.0 | 0.0 | 0.00 | 0.00 | 0.00 | 95 | 1013.9 |
| 20260507102000 | 34 | 158 | 0.0 | 0.0 | 0.00 | 0.00 | 0.00 | 95 | 1013.9 |
| 20260507101455 | 34 | 157 | 0.0 | 0.0 | 0.00 | 0.00 | 0.00 | 94 | 1013.9 |
| 20260507100952 | 34 | 157 | 0.0 | 0.0 | 0.00 | 0.00 | 0.00 | 94 | 1013.9 |
| 20260507100449 | 34 | 158 | 0.0 | 0.0 | 0.00 | 0.00 | 0.00 | 94 | 1013.9 |
| 20260507095948 | 34 | 157 | 0.0 | 0.0 | 0.00 | 0.00 | 0.00 | 93 | 1013.9 |
| 20260507095445 | 34 | 157 | 0.0 | 0.0 | 0.00 | 0.00 | 0.00 | 93 | 1013.9 |
| 20260507094942 | 34 | 157 | 0.0 | 0.0 | 0.00 | 0.00 | 0.00 | 93 | 1013.9 |
| 20260507094438 | 35 | 157 | 0.0 | 0.0 | 0.00 | 0.00 | 0.00 | 92 | 1013.9 |
| 20260507093935 | 35 | 157 | 0.0 | 0.0 | 0.00 | 0.00 | 0.00 | 92 | 1013.9 |
| 20260507093433 | 35 | 158 | 0.0 | 0.0 | 0.00 | 0.00 | 0.00 | 91 | 1013.9 |
| 20260507092931 | 35 | 158 | 0.0 | 0.0 | 0.00 | 0.00 | 0.00 | 91 | 1013.9 |
| 20260507092427 | 36 | 158 | 0.0 | 0.0 | 0.00 | 0.00 | 0.00 | 90 | 1013.9 |
| 20260507091923 | 36 | 159 | 0.0 | 0.0 | 0.00 | 0.00 | 0.00 | 90 | 1013.9 |
| 20260507091420 | 36 | 157 | 0.0 | 0.0 | 0.00 | 0.00 | 0.00 | 90 | 1013.9 |
| 20260507090916 | 36 | 158 | 0.0 | 0.0 | 0.00 | 0.00 | 0.00 | 90 | 1013.9 |
| 20260507090412 | 36 | 153 | 0.0 | 0.0 | 0.00 | 0.00 | 0.00 | 89 | 1013.9 |
| 20260507085909 | 37 | 158 | 0.0 | 0.0 | 0.00 | 0.00 | 0.00 | 89 | 1013.9 |
| 20260507085406 | 37 | 161 | 0.0 | 0.0 | 0.00 | 0.00 | 0.00 | 88 | 1013.9 |
| 20260507084903 | 37 | 152 | 0.0 | 0.0 | 0.00 | 0.00 | 0.00 | 88 | 1013.9 |
| 20260507084400 | 37 | 158 | 0.0 | 0.0 | 0.00 | 0.00 | 0.00 | 88 | 1013.9 |
| 20260507083857 | 38 | 160 | 0.0 | 0.0 | 0.00 | 0.00 | 0.00 | 87 | 1013.9 |
| 20260507083353 | 38 | 154 | 0.0 | 0.0 | 0.00 | 0.00 | 0.00 | 88 | 1013.9 |
| 20260507082850 | 38 | 174 | 0.0 | 0.0 | 0.00 | 0.00 | 0.00 | 88 | 1013.9 |
| 20260507082345 | 38 | 160 | 0.0 | 0.0 | 0.00 | 0.00 | 0.00 | 89 | 1013.9 |
| 20260507081843 | 37 | 159 | 0.0 | 1.0 | 0.00 | 0.00 | 0.00 | 90 | 1013.9 |
| 20260507081338 | 37 | 158 | 0.0 | 0.0 | 0.00 | 0.00 | 0.00 | 90 | 1013.9 |
| 20260507080836 | 37 | 163 | 0.0 | 0.0 | 0.00 | 0.00 | 0.00 | 89 | 1014.2 |
| 20260507080332 | 38 | 158 | 0.0 | 0.0 | 0.00 | 0.00 | 0.00 | 88 | 1013.9 |
| 20260507075827 | 38 | 157 | 0.0 | 0.0 | 0.00 | 0.00 | 0.00 | 87 | 1013.9 |
| 20260507075323 | 39 | 158 | 0.0 | 0.0 | 0.00 | 0.00 | 0.00 | 87 | 1013.9 |
| 20260507074820 | 39 | 154 | 0.0 | 0.0 | 0.00 | 0.00 | 0.00 | 86 | 1013.9 |
| 20260507074318 | 39 | 158 | 0.0 | 0.0 | 0.00 | 0.00 | 0.00 | 85 | 1013.9 |
| 20260507073815 | 40 | 160 | 0.0 | 0.0 | 0.00 | 0.00 | 0.00 | 85 | 1013.9 |
| 20260507073311 | 40 | 163 | 0.0 | 0.0 | 0.00 | 0.00 | 0.00 | 85 | 1013.9 |
| 20260507072809 | 40 | 163 | 0.0 | 0.0 | 0.00 | 0.00 | 0.00 | 84 | 1013.9 |
| 20260507072307 | 41 | 164 | 0.0 | 0.0 | 0.00 | 0.00 | 0.00 | 84 | 1013.9 |
| 20260507071803 | 41 | 163 | 0.0 | 0.0 | 0.00 | 0.00 | 0.00 | 83 | 1013.9 |
| 20260507071259 | 41 | 175 | 0.0 | 0.0 | 0.00 | 0.00 | 0.00 | 84 | 1013.9 |
| 20260507070756 | 41 | 160 | 0.0 | 0.0 | 0.00 | 0.00 | 0.00 | 83 | 1013.5 |
| 20260507070254 | 41 | 172 | 0.0 | 0.0 | 0.00 | 0.00 | 0.00 | 82 | 1013.9 |
| 20260507065750 | 41 | 159 | 0.0 | 0.0 | 0.00 | 0.00 | 0.00 | 82 | 1013.5 |
| 20260507065247 | 42 | 166 | 0.0 | 0.0 | 0.00 | 0.00 | 0.00 | 82 | 1013.5 |
| 20260507064744 | 42 | 159 | 0.0 | 0.0 | 0.00 | 0.00 | 0.00 | 83 | 1013.9 |
| 20260507064243 | 42 | 159 | 0.0 | 0.0 | 0.00 | 0.00 | 0.00 | 82 | 1013.9 |
| 20260507063740 | 42 | 157 | 0.0 | 0.0 | 0.00 | 0.00 | 0.00 | 83 | 1013.9 |
| 20260507063237 | 42 | 171 | 0.0 | 0.0 | 0.00 | 0.00 | 0.00 | 82 | 1013.9 |
| 20260507062734 | 42 | 157 | 0.0 | 0.0 | 0.00 | 0.00 | 0.00 | 81 | 1013.9 |
| 20260507062231 | 42 | 192 | 0.0 | 0.0 | 0.00 | 0.00 | 0.00 | 81 | 1013.9 |
| 20260507061729 | 42 | 173 | 0.0 | 0.0 | 0.00 | 0.00 | 0.00 | 81 | 1013.9 |
| 20260507061227 | 42 | 173 | 0.0 | 1.0 | 0.00 | 0.00 | 0.00 | 82 | 1013.9 |
| 20260507060725 | 43 | 160 | 0.0 | 0.0 | 0.00 | 0.00 | 0.00 | 82 | 1013.9 |
| 20260507060221 | 42 | 161 | 1.0 | 1.0 | 0.00 | 0.00 | 0.00 | 82 | 1013.9 |
| 20260507055717 | 42 | 331 | 1.0 | 3.0 | 0.00 | 0.00 | 0.00 | 86 | 1013.9 |
| 20260507055213 | 43 | 247 | 3.0 | 3.0 | 0.00 | 0.00 | 0.00 | 90 | 1013.9 |
| 20260507054709 | 42 | 276 | 2.0 | 3.0 | 0.00 | 0.00 | 0.00 | 91 | 1014.2 |
| 20260507054206 | 43 | 156 | 0.0 | 1.0 | 0.00 | 0.00 | 0.00 | 93 | 1014.2 |
| 20260507053704 | 43 | 190 | 0.0 | 0.0 | 0.00 | 0.00 | 0.00 | 94 | 1013.9 |
| 20260507053201 | 43 | 147 | 0.0 | 0.0 | 0.00 | 0.00 | 0.00 | 94 | 1013.9 |
| 20260507052700 | 43 | 185 | 0.0 | 0.0 | 0.00 | 0.00 | 0.00 | 94 | 1013.9 |
| 20260507052155 | 43 | 319 | 1.0 | 2.0 | 0.00 | 0.00 | 0.00 | 95 | 1013.9 |
| 20260507051653 | 43 | 175 | 1.0 | 2.0 | 0.00 | 0.00 | 0.00 | 95 | 1013.9 |
| 20260507051150 | 43 | 136 | 2.0 | 2.0 | 0.00 | 0.00 | 0.00 | 95 | 1013.9 |
| 20260507050647 | 43 | 165 | 0.0 | 1.0 | 0.00 | 0.00 | 0.00 | 95 | 1013.9 |
| 20260507050143 | 43 | 186 | 1.0 | 2.0 | 0.00 | 0.00 | 0.00 | 95 | 1013.9 |
| 20260507045640 | 43 | 247 | 1.0 | 2.0 | 0.00 | 0.00 | 0.00 | 95 | 1013.9 |
| 20260507045137 | 43 | 193 | 2.0 | 2.0 | 0.00 | 0.00 | 0.00 | 96 | 1013.5 |
| 20260507044634 | 43 | 183 | 0.0 | 0.0 | 0.00 | 0.00 | 0.00 | 96 | 1013.9 |
| 20260507044131 | 44 | 162 | 1.0 | 2.0 | 0.00 | 0.00 | 0.00 | 96 | 1013.9 |
| 20260507043627 | 44 | 157 | 2.0 | 3.0 | 0.00 | 0.00 | 0.00 | 96 | 1013.9 |
| 20260507043124 | 44 | 162 | 0.0 | 0.0 | 0.00 | 0.00 | 0.00 | 97 | 1013.9 |
| 20260507042620 | 44 | 172 | 0.0 | 0.0 | 0.00 | 0.00 | 0.00 | 97 | 1013.9 |
| 20260507042115 | 44 | 81 | 1.0 | 2.0 | 0.00 | 0.00 | 0.00 | 98 | 1013.9 |
| 20260507041613 | 44 | 204 | 1.0 | 2.0 | 0.00 | 0.00 | 0.00 | 98 | 1013.5 |
| 20260507041109 | 44 | 183 | 0.0 | 0.0 | 0.00 | 0.00 | 0.00 | 98 | 1013.5 |
| 20260507040606 | 44 | 176 | 0.0 | 0.0 | 0.00 | 0.00 | 0.00 | 99 | 1013.1 |
| 20260507035558 | 44 | 162 | 0.0 | 0.0 | 0.00 | 0.66 | 0.66 | 98 | 1013.1 |
| 20260507035055 | 44 | 238 | 0.0 | 0.0 | 0.00 | 0.66 | 0.66 | 98 | 1013.1 |
| 20260507034552 | 44 | 205 | 0.0 | 0.0 | 0.00 | 0.66 | 0.66 | 98 | 1013.5 |
| 20260507034050 | 44 | 171 | 0.0 | 0.0 | 0.00 | 0.66 | 0.66 | 98 | 1013.5 |
| 20260507033547 | 44 | 272 | 0.0 | 1.0 | 0.00 | 0.66 | 0.66 | 98 | 1013.1 |
| 20260507033044 | 44 | 175 | 0.0 | 0.0 | 0.00 | 0.66 | 0.66 | 98 | 1013.5 |
| 20260507032541 | 44 | 169 | 0.0 | 0.0 | 0.00 | 0.66 | 0.66 | 98 | 1013.1 |
| 20260507032038 | 45 | 288 | 1.0 | 2.0 | 0.00 | 0.66 | 0.66 | 98 | 1013.1 |
| 20260507031534 | 44 | 155 | 0.0 | 0.0 | 0.00 | 0.66 | 0.66 | 98 | 1013.1 |
| 20260507031031 | 44 | 169 | 0.0 | 0.0 | 0.00 | 0.66 | 0.66 | 98 | 1013.1 |
| 20260507030528 | 44 | 226 | 0.0 | 0.0 | 0.00 | 0.66 | 0.66 | 98 | 1013.1 |
| 20260507030026 | 44 | 180 | 0.0 | 0.0 | 0.00 | 0.66 | 0.66 | 98 | 1013.5 |
| 20260507025522 | 45 | 179 | 1.0 | 1.0 | 0.00 | 0.66 | 0.66 | 99 | 1013.5 |
| 20260507025020 | 45 | 219 | 0.0 | 0.0 | 0.00 | 0.66 | 0.66 | 98 | 1013.1 |
| 20260507024518 | 45 | 176 | 0.0 | 0.0 | 0.00 | 0.66 | 0.66 | 98 | 1013.5 |
| 20260507024014 | 45 | 164 | 0.0 | 0.0 | 0.00 | 0.66 | 0.66 | 98 | 1013.1 |
| 20260507023510 | 45 | 254 | 0.0 | 0.0 | 0.00 | 0.66 | 0.66 | 98 | 1013.1 |
| 20260507023008 | 45 | 170 | 0.0 | 0.0 | 0.00 | 0.66 | 0.66 | 98 | 1013.5 |
| 20260507022504 | 45 | 235 | 0.0 | 0.0 | 0.00 | 0.66 | 0.66 | 98 | 1013.1 |
| 20260507022000 | 45 | 186 | 0.0 | 0.0 | 0.00 | 0.66 | 0.66 | 98 | 1013.5 |
| 20260507021455 | 45 | 161 | 0.0 | 0.0 | 0.00 | 0.66 | 0.66 | 98 | 1013.1 |
| 20260507020953 | 45 | 162 | 0.0 | 0.0 | 0.00 | 0.66 | 0.66 | 98 | 1013.5 |
| 20260507020450 | 45 | 161 | 0.0 | 0.0 | 0.00 | 0.66 | 0.66 | 98 | 1013.5 |
| 20260507015947 | 45 | 158 | 0.0 | 0.0 | 0.00 | 0.66 | 0.66 | 98 | 1013.1 |
| 20260507015445 | 45 | 162 | 0.0 | 0.0 | 0.00 | 0.66 | 0.66 | 98 | 1013.9 |
| 20260507014942 | 45 | 158 | 0.0 | 0.0 | 0.00 | 0.66 | 0.66 | 97 | 1013.1 |
| 20260507014438 | 45 | 158 | 0.0 | 0.0 | 0.00 | 0.66 | 0.66 | 97 | 1013.5 |
| 20260507013934 | 45 | 158 | 0.0 | 0.0 | 0.00 | 0.66 | 0.66 | 97 | 1013.1 |
| 20260507013431 | 45 | 164 | 0.0 | 0.0 | 0.00 | 0.66 | 0.66 | 97 | 1013.5 |
| 20260507012929 | 45 | 162 | 0.0 | 0.0 | 0.00 | 0.66 | 0.66 | 97 | 1013.5 |
| 20260507012426 | 45 | 158 | 0.0 | 0.0 | 0.00 | 0.66 | 0.66 | 97 | 1013.1 |
| 20260507011923 | 45 | 155 | 0.0 | 0.0 | 0.00 | 0.66 | 0.66 | 97 | 1012.7 |
| 20260507011420 | 45 | 158 | 0.0 | 0.0 | 0.00 | 0.66 | 0.66 | 96 | 1013.1 |
| 20260507010919 | 45 | 144 | 0.0 | 0.0 | 0.00 | 0.66 | 0.66 | 96 | 1013.1 |
| 20260507010415 | 45 | 158 | 0.0 | 0.0 | 0.00 | 0.66 | 0.66 | 96 | 1013.1 |
| 20260507005912 | 45 | 161 | 0.0 | 0.0 | 0.00 | 0.66 | 0.66 | 96 | 1013.1 |
| 20260507005409 | 45 | 160 | 0.0 | 0.0 | 0.00 | 0.66 | 0.66 | 96 | 1013.1 |
| 20260507004906 | 45 | 160 | 0.0 | 0.0 | 0.00 | 0.66 | 0.66 | 96 | 1013.1 |
| 20260507004402 | 45 | 159 | 0.0 | 0.0 | 0.00 | 0.66 | 0.66 | 96 | 1013.1 |
| 20260507003900 | 45 | 159 | 0.0 | 0.0 | 0.00 | 0.66 | 0.66 | 96 | 1013.1 |
| 20260507003355 | 45 | 154 | 0.0 | 0.0 | 0.00 | 0.66 | 0.66 | 96 | 1013.1 |
| 20260507002850 | 45 | 161 | 0.0 | 0.0 | 0.00 | 0.66 | 0.66 | 96 | 1012.7 |
| 20260507002347 | 45 | 167 | 0.0 | 0.0 | 0.00 | 0.66 | 0.66 | 95 | 1013.1 |
| 20260507001844 | 46 | 159 | 0.0 | 0.0 | 0.00 | 0.66 | 0.66 | 95 | 1012.7 |
| 20260507001341 | 46 | 164 | 0.0 | 0.0 | 0.00 | 0.66 | 0.66 | 95 | 1012.7 |
| 20260507000837 | 46 | 151 | 0.0 | 0.0 | 0.00 | 0.66 | 0.66 | 95 | 1012.7 |
| 20260507000333 | 46 | 165 | 0.0 | 0.0 | 0.00 | 0.66 | 0.66 | 95 | 1012.4 |
| 20260506235829 | 46 | 179 | 0.0 | 0.0 | 0.00 | 0.66 | 0.66 | 95 | 1012.4 |
| 20260506235326 | 46 | 159 | 0.0 | 0.0 | 0.00 | 0.66 | 0.66 | 95 | 1012.4 |
| 20260506234822 | 46 | 161 | 0.0 | 0.0 | 0.00 | 0.66 | 0.66 | 94 | 1012.4 |
| 20260506234320 | 46 | 163 | 0.0 | 0.0 | 0.00 | 0.66 | 0.66 | 94 | 1012.4 |
| 20260506233818 | 46 | 229 | 2.0 | 3.0 | 0.00 | 0.66 | 0.66 | 94 | 1012.4 |
| 20260506233313 | 46 | 166 | 0.0 | 0.0 | 0.00 | 0.66 | 0.66 | 94 | 1012.1 |
| 20260506232810 | 47 | 162 | 0.0 | 0.0 | 0.00 | 0.66 | 0.66 | 94 | 1011.7 |
| 20260506232306 | 47 | 160 | 0.0 | 0.0 | 0.00 | 0.66 | 0.66 | 94 | 1012.1 |
| 20260506231803 | 47 | 199 | 0.0 | 0.0 | 0.00 | 0.66 | 0.66 | 93 | 1012.1 |
| 20260506231301 | 47 | 184 | 1.0 | 2.0 | 0.00 | 0.66 | 0.66 | 94 | 1012.1 |
| 20260506230758 | 47 | 175 | 0.0 | 0.0 | 0.00 | 0.66 | 0.66 | 93 | 1011.4 |
| 20260506230255 | 47 | 168 | 0.0 | 0.0 | 0.00 | 0.66 | 0.66 | 92 | 1011.4 |
| 20260506225751 | 47 | 180 | 0.0 | 0.0 | 0.00 | 0.66 | 0.66 | 92 | 1011.7 |
| 20260506225248 | 47 | 297 | 1.0 | 1.0 | 0.00 | 0.66 | 0.66 | 91 | 1011.4 |
| 20260506224744 | 47 | 151 | 0.0 | 0.0 | 0.00 | 0.66 | 0.66 | 92 | 1011.4 |
| 20260506224242 | 47 | 173 | 1.0 | 1.0 | 0.00 | 0.66 | 0.66 | 93 | 1012.1 |
| 20260506223738 | 47 | 169 | 1.0 | 1.0 | 0.00 | 0.66 | 0.66 | 92 | 1011.7 |
| 20260506223234 | 47 | 175 | 0.0 | 0.0 | 0.00 | 0.66 | 0.66 | 92 | 1012.1 |
| 20260506222731 | 47 | 188 | 0.0 | 0.0 | 0.00 | 0.66 | 0.66 | 92 | 1012.1 |
| 20260506222226 | 47 | 194 | 1.0 | 1.0 | 0.00 | 0.66 | 0.66 | 92 | 1011.7 |
| 20260506221724 | 47 | 193 | 1.0 | 2.0 | 0.00 | 0.66 | 0.66 | 93 | 1012.1 |
| 20260506221222 | 47 | 176 | 0.0 | 0.0 | 0.00 | 0.66 | 0.66 | 93 | 1012.1 |
| 20260506220719 | 47 | 171 | 0.0 | 1.0 | 0.00 | 0.66 | 0.66 | 93 | 1012.1 |
| 20260506220214 | 47 | 232 | 2.0 | 2.0 | 0.00 | 0.66 | 0.66 | 93 | 1011.7 |
| 20260506215711 | 47 | 152 | 0.0 | 1.0 | 0.00 | 0.66 | 0.66 | 93 | 1012.1 |
| 20260506215206 | 48 | 168 | 0.0 | 0.0 | 0.00 | 0.66 | 0.66 | 93 | 1012.1 |
| 20260506214703 | 48 | 177 | 1.0 | 2.0 | 0.00 | 0.66 | 0.66 | 94 | 1011.7 |
| 20260506214200 | 48 | 304 | 2.0 | 5.0 | 0.00 | 0.66 | 0.66 | 94 | 1011.7 |
| 20260506213659 | 48 | 302 | 0.0 | 2.0 | 0.00 | 0.66 | 0.66 | 94 | 1011.7 |
| 20260506213156 | 48 | 160 | 0.0 | 0.0 | 0.00 | 0.66 | 0.66 | 95 | 1011.7 |
| 20260506212653 | 48 | 146 | 1.0 | 1.0 | 0.00 | 0.66 | 0.66 | 95 | 1011.4 |
| 20260506212148 | 48 | 182 | 2.0 | 2.0 | 0.00 | 0.66 | 0.66 | 95 | 1011.4 |
| 20260506211643 | 48 | 192 | 1.0 | 2.0 | 0.00 | 0.66 | 0.66 | 96 | 1011.7 |
| 20260506211140 | 47 | 240 | 1.0 | 2.0 | 0.00 | 0.66 | 0.66 | 96 | 1011.4 |
| 20260506210637 | 47 | 317 | 4.0 | 5.0 | 0.00 | 0.66 | 0.66 | 96 | 1011.7 |
| 20260506210135 | 47 | 86 | 2.0 | 5.0 | 0.00 | 0.66 | 0.66 | 96 | 1011.7 |
| 20260506205632 | 47 | 261 | 3.0 | 5.0 | 0.00 | 0.66 | 0.66 | 97 | 1011.4 |
| 20260506205132 | 47 | 286 | 5.0 | 7.0 | 0.00 | 0.66 | 0.66 | 98 | 1011.4 |
| 20260506204630 | 46 | 287 | 2.0 | 3.0 | 0.00 | 0.66 | 0.66 | 98 | 1011.4 |
| 20260506204127 | 46 | 188 | 3.0 | 3.0 | 0.00 | 0.66 | 0.66 | 99 | 1011.4 |
| 20260506203625 | 46 | 237 | 2.0 | 2.0 | 0.00 | 0.66 | 0.66 | 99 | 1011.1 |
| 20260506203121 | 46 | 172 | 1.0 | 1.0 | 0.00 | 0.66 | 0.66 | 99 | 1011.4 |
| 20260506202619 | 47 | 223 | 2.0 | 2.0 | 0.00 | 0.66 | 0.66 | 99 | 1011.1 |
| 20260506202115 | 46 | 201 | 1.0 | 1.0 | 0.00 | 0.66 | 0.66 | 99 | 1011.1 |
| 20260506201613 | 46 | 282 | 0.0 | 1.0 | 0.00 | 0.66 | 0.66 | 99 | 1011.1 |
| 20260506201109 | 46 | 181 | 1.0 | 1.0 | 0.00 | 0.66 | 0.66 | 99 | 1010.7 |
| 20260506200606 | 46 | 295 | 1.0 | 2.0 | 0.00 | 0.66 | 0.66 | 99 | 1010.7 |
| 20260506195559 | 46 | 189 | 3.0 | 3.0 | 0.00 | 0.66 | 0.66 | 99 | 1011.1 |
| 20260506195055 | 46 | 190 | 2.0 | 2.0 | 0.00 | 0.66 | 0.66 | 99 | 1011.1 |
| 20260506194553 | 46 | 178 | 2.0 | 2.0 | 0.00 | 0.66 | 0.66 | 99 | 1011.1 |
| 20260506194049 | 46 | 75 | 2.0 | 2.0 | 0.00 | 0.66 | 0.66 | 99 | 1011.4 |
| 20260506193547 | 46 | 148 | 1.0 | 1.0 | 0.00 | 0.66 | 0.66 | 99 | 1011.1 |
| 20260506193044 | 46 | 219 | 4.0 | 5.0 | 0.00 | 0.66 | 0.66 | 99 | 1011.1 |
| 20260506192541 | 46 | 144 | 2.0 | 2.0 | 0.00 | 0.66 | 0.66 | 99 | 1011.1 |
| 20260506192037 | 46 | 283 | 4.0 | 5.0 | 0.00 | 0.66 | 0.66 | 99 | 1010.7 |
| 20260506191534 | 46 | 200 | 0.0 | 1.0 | 0.00 | 0.66 | 0.66 | 99 | 1010.7 |
| 20260506191029 | 46 | 278 | 1.0 | 1.0 | 0.00 | 0.66 | 0.66 | 99 | 1010.7 |
| 20260506190527 | 46 | 220 | 1.0 | 2.0 | 0.00 | 0.66 | 0.66 | 99 | 1010.7 |
| 20260506190024 | 46 | 145 | 3.0 | 5.0 | 0.00 | 0.66 | 0.66 | 99 | 1010.4 |
| 20260506185521 | 46 | 252 | 2.0 | 3.0 | 0.00 | 0.66 | 0.66 | 99 | 1010.7 |
| 20260506185017 | 46 | 207 | 1.0 | 2.0 | 0.00 | 0.66 | 0.66 | 99 | 1010.4 |
| 20260506184515 | 46 | 224 | 2.0 | 2.0 | 0.00 | 0.66 | 0.66 | 99 | 1010.7 |
| 20260506184012 | 46 | 175 | 1.0 | 1.0 | 0.00 | 0.66 | 0.66 | 99 | 1010.7 |
| 20260506183507 | 46 | 163 | 1.0 | 1.0 | 0.00 | 0.66 | 0.66 | 99 | 1010.7 |
| 20260506183005 | 46 | 278 | 2.0 | 2.0 | 0.00 | 0.66 | 0.66 | 99 | 1010.4 |
| 20260506182502 | 46 | 86 | 3.0 | 3.0 | 0.00 | 0.66 | 0.66 | 99 | 1010.7 |
| 20260506181959 | 46 | 211 | 3.0 | 5.0 | 0.00 | 0.66 | 0.66 | 99 | 1010.4 |
| 20260506181457 | 46 | 209 | 3.0 | 3.0 | 0.00 | 0.66 | 0.66 | 99 | 1010.4 |
| 20260506180953 | 46 | 193 | 3.0 | 5.0 | 0.00 | 0.66 | 0.66 | 99 | 1010.0 |
| 20260506180450 | 46 | 207 | 1.0 | 2.0 | 0.00 | 0.66 | 0.66 | 99 | 1010.0 |
| 20260506175947 | 46 | 177 | 3.0 | 3.0 | 0.00 | 0.66 | 0.66 | 99 | 1010.0 |
| 20260506175443 | 46 | 168 | 1.0 | 1.0 | 0.00 | 0.66 | 0.66 | 99 | 1010.0 |
| 20260506174940 | 46 | 278 | 4.0 | 5.0 | 0.00 | 0.66 | 0.66 | 99 | 1010.0 |
| 20260506174438 | 47 | 245 | 0.0 | 0.0 | 0.00 | 0.66 | 0.66 | 99 | 1010.0 |
| 20260506173934 | 47 | 130 | 1.0 | 1.0 | 0.00 | 0.66 | 0.66 | 99 | 1010.0 |
| 20260506173431 | 47 | 174 | 0.0 | 0.0 | 0.00 | 0.66 | 0.66 | 99 | 1009.7 |
| 20260506172923 | 47 | 179 | 0.0 | 0.0 | 0.00 | 0.66 | 0.66 | 99 | 1010.0 |
| 20260506172420 | 47 | 263 | 0.0 | 0.0 | 0.00 | 0.66 | 0.66 | 99 | 1010.0 |
| 20260506171917 | 47 | 202 | 0.0 | 0.0 | 0.00 | 0.66 | 0.66 | 99 | 1009.7 |
| 20260506171414 | 47 | 187 | 0.0 | 0.0 | 0.00 | 0.66 | 0.66 | 99 | 1009.7 |
| 20260506170912 | 48 | 193 | 1.0 | 1.0 | 0.00 | 0.66 | 0.66 | 99 | 1009.7 |
| 20260506170408 | 48 | 162 | 0.0 | 0.0 | 0.00 | 0.66 | 0.66 | 99 | 1009.4 |
| 20260506165907 | 47 | 162 | 0.0 | 0.0 | 0.00 | 0.66 | 0.66 | 99 | 1009.7 |
| 20260506165405 | 47 | 152 | 0.0 | 0.0 | 0.00 | 0.66 | 0.66 | 99 | 1009.7 |
| 20260506164900 | 47 | 300 | 1.0 | 3.0 | 0.00 | 0.66 | 0.66 | 99 | 1009.7 |
| 20260506164357 | 47 | 157 | 0.0 | 0.0 | 0.00 | 0.66 | 0.66 | 99 | 1009.7 |